sat.trackr.live / text

‹ back to catalog

ONEWEB-0101

NORAD 48049 · 2021-025H

PAYLOAD ACTIVE UNKNOWN

§ Identity

Operator
Country
UK
Launch date
2021-03-25
Launch site
VOSTO
Launch vehicle
Mass (kg)
RCS (m²)

Purposes: comms

External: N2YO · Heavens-Above · Gunter

§ Orbital elements

Epoch: 2026-09-20T01:27:36.531936Z

Period
109.63 min
Inclination
87.8913°
Eccentricity
0.0001774
Mean motion
13.13470410 rev/d
Perigee alt
1,208.4 km
Apogee alt
1,211.1 km
Semi-major
7,587.9 km
B*
-9.0025e-4
RAAN
301.3454°
Arg perigee
91.4966°
Mean anomaly
268.6367°
Rev number
26,595

§ Raw data

ONEWEB-01011 48049U 21025H   26263.06083949 -.00000316  00000+0 -90025-3 0  99932 48049  87.8913 301.3454 0001774  91.4966 268.6367 13.13470410265956

JSON: /api/v1/satellites/48049 · /tle

For live sub-satellite position, see the globe view (requires WebGL).

§ Visibility from observer

Set your observer location to see the next 7 days of passes ≥ 10°. The values pass through the URL so the page stays shareable.

No JS? Fill the form by hand. The geolocation button needs JavaScript.